If you wish to contribute or participate in the discussions about articles you are invited to join SKYbrary as a registered user

 Actions

Andres Sabella Galvez International Airport

From SKYbrary Wiki

SCFA
Airport
ICAO: SCFA – IATA: ANF
Summary
Name Andres Sabella Galvez International Airport
Region South America and Caribbean
Territory Chile CL.gif
Location La Chimba, Antofagasta
Serving Antofagasta
Elevation 138.684 m
455 ft
455 ft138.684 m
Type medium airport
Coordinates 23° 26' 40.12" S, 70° 26' 42.36" W
Runways
Designator Length Width Surface ROPS
1/19 2599 m8,526.903 ft
50 m164.042 ft
ASP /


METAR
Observation SCFA 140200Z 20007KT 9999 BKN009 BKN021 16/13 Q1016 NOSIG
Station Antofagasta
Date/Time 14 December 2018 02:00:00
Wind direction 200°
Wind speed 07 kts
Lowest cloud amount broken clouds
Temperature 16°C
Dew point 13°C
Humidity 82%
QNH 1016 hPa
Weather condition n/a

International airport 6.2 nm11,482.4 m
11.482 km
37,671.916 ft
north of Antofagasta, Chile.

Climatology

Mild desert climate (Köppen climate classification BWn)

Maps

Terrain

Loading map...

Airport Layout

Loading map...


Accidents & Serious Incidents at or in vicinity of SCFA

None on SKYbrary